Time,TemperatureF,DewpointF,PressureIn,WindDirection,WindDirectionDegrees,WindSpeedMPH,WindSpeedGustMPH,Humidity,HourlyPrecipIn,Conditions,Clouds,dailyrainin,SoftwareType,DateUTC
2013-04-16 00:03:00,39.1,35.9,30.32,West,279,0.0,0.0,88,0.00,,,0.00,LWC V2.10 B1813,2013-04-16 04:03:00,
2013-04-16 00:08:00,39.0,35.8,30.32,WNW,290,0.0,1.0,88,0.00,,,0.00,LWC V2.10 B1813,2013-04-16 04:08:00,
2013-04-16 00:13:00,38.6,35.4,30.32,WNW,294,1.0,1.0,88,0.00,,,0.00,LWC V2.10 B1813,2013-04-16 04:13:00,
2013-04-16 00:18:00,38.4,35.4,30.32,WNW,294,0.0,1.0,89,0.00,,,0.00,LWC V2.10 B1813,2013-04-16 04:18:00,
2013-04-16 00:23:00,38.4,35.4,30.32,WNW,286,0.0,1.0,89,0.00,,,0.00,LWC V2.10 B1813,2013-04-16 04:23:00,
2013-04-16 00:28:00,38.3,35.3,30.32,WNW,288,0.0,1.0,89,0.00,,,0.00,LWC V2.10 B1813,2013-04-16 04:28:00,
2013-04-16 00:33:00,38.0,35.3,30.32,WNW,289,0.0,0.0,90,0.00,,,0.00,LWC V2.10 B1813,2013-04-16 04:33:00,
2013-04-16 00:38:00,37.8,35.1,30.32,WNW,294,0.0,1.0,90,0.00,,,0.00,LWC V2.10 B1813,2013-04-16 04:38:00,
2013-04-16 00:43:00,37.7,35.0,30.32,WNW,294,0.0,0.0,90,0.00,,,0.00,LWC V2.10 B1813,2013-04-16 04:43:00,
2013-04-16 00:48:00,37.7,35.0,30.33,WNW,294,0.0,0.0,90,0.00,,,0.00,LWC V2.10 B1813,2013-04-16 04:48:00,
2013-04-16 00:53:00,37.7,35.0,30.33,WNW,297,0.0,1.0,90,0.00,,,0.00,LWC V2.10 B1813,2013-04-16 04:53:00,
2013-04-16 00:58:00,37.6,34.9,30.33,WNW,290,0.0,1.0,90,0.00,,,0.00,LWC V2.10 B1813,2013-04-16 04:58:00,
2013-04-16 01:03:00,37.6,34.9,30.33,WNW,290,0.0,1.0,90,0.00,,,0.00,LWC V2.10 B1813,2013-04-16 05:03:00,
2013-04-16 01:08:00,37.5,34.8,30.33,WNW,289,0.0,0.0,90,0.00,,,0.00,LWC V2.10 B1813,2013-04-16 05:08:00,
2013-04-16 01:13:00,37.2,34.5,30.33,WNW,290,1.0,1.0,90,0.00,,,0.00,LWC V2.10 B1813,2013-04-16 05:13:00,
2013-04-16 01:18:00,37.1,34.4,30.33,WNW,288,1.0,1.0,90,0.00,,,0.00,LWC V2.10 B1813,2013-04-16 05:18:00,
2013-04-16 01:23:00,36.9,34.2,30.33,WNW,290,0.0,0.0,90,0.00,,,0.00,LWC V2.10 B1813,2013-04-16 05:23:00,
2013-04-16 01:28:00,36.9,34.2,30.33,WNW,290,0.0,0.0,90,0.00,,,0.00,LWC V2.10 B1813,2013-04-16 05:28:00,
2013-04-16 01:33:00,36.7,34.0,30.33,WNW,298,0.0,1.0,90,0.00,,,0.00,LWC V2.10 B1813,2013-04-16 05:33:00,
2013-04-16 01:38:00,36.6,33.9,30.33,WNW,291,0.0,0.0,90,0.00,,,0.00,LWC V2.10 B1813,2013-04-16 05:38:00,
2013-04-16 01:43:00,36.5,33.9,30.33,WNW,287,0.0,1.0,90,0.00,,,0.00,LWC V2.10 B1813,2013-04-16 05:43:00,
2013-04-16 01:48:00,36.6,33.7,30.33,WNW,286,0.0,0.0,89,0.00,,,0.00,LWC V2.10 B1813,2013-04-16 05:48:00,
2013-04-16 01:53:00,36.5,33.6,30.33,WNW,284,0.0,1.0,89,0.00,,,0.00,LWC V2.10 B1813,2013-04-16 05:53:00,
2013-04-16 01:58:00,36.5,33.6,30.33,WNW,296,0.0,1.0,89,0.00,,,0.00,LWC V2.10 B1813,2013-04-16 05:58:00,
2013-04-16 02:03:00,36.4,33.5,30.33,West,272,1.0,2.0,89,0.00,,,0.00,LWC V2.10 B1813,2013-04-16 06:03:00,
2013-04-16 02:08:00,36.4,33.5,30.33,West,275,2.0,2.0,89,0.00,,,0.00,LWC V2.10 B1813,2013-04-16 06:08:00,
2013-04-16 02:13:00,36.5,33.3,30.33,West,281,0.0,0.0,88,0.00,,,0.00,LWC V2.10 B1813,2013-04-16 06:13:00,
2013-04-16 02:18:00,36.5,33.3,30.32,WNW,286,0.0,1.0,88,0.00,,,0.00,LWC V2.10 B1813,2013-04-16 06:18:00,
2013-04-16 02:23:00,36.6,33.4,30.32,West,279,0.0,1.0,88,0.00,,,0.00,LWC V2.10 B1813,2013-04-16 06:23:00,
2013-04-16 02:28:00,36.7,33.5,30.33,West,279,1.0,1.0,88,0.00,,,0.00,LWC V2.10 B1813,2013-04-16 06:28:00,
2013-04-16 02:33:00,37.0,33.5,30.33,West,262,0.0,1.0,87,0.00,,,0.00,LWC V2.10 B1813,2013-04-16 06:33:00,
2013-04-16 02:38:00,37.2,33.7,30.33,West,263,0.0,1.0,87,0.00,,,0.00,LWC V2.10 B1813,2013-04-16 06:38:00,
2013-04-16 02:43:00,37.2,33.4,30.33,WSW,246,1.0,1.0,86,0.00,,,0.00,LWC V2.10 B1813,2013-04-16 06:43:00,
2013-04-16 02:48:00,37.4,33.6,30.33,WSW,255,0.0,1.0,86,0.00,,,0.00,LWC V2.10 B1813,2013-04-16 06:48:00,
2013-04-16 02:53:00,38.0,33.3,30.33,SE,138,0.0,3.0,83,0.00,,,0.00,LWC V2.10 B1813,2013-04-16 06:53:00,
2013-04-16 02:58:00,38.1,33.7,30.33,SE,133,0.0,0.0,84,0.00,,,0.00,LWC V2.10 B1813,2013-04-16 06:58:00,
2013-04-16 03:03:00,37.5,33.4,30.33,WNW,297,1.0,2.0,85,0.00,,,0.00,LWC V2.10 B1813,2013-04-16 07:03:00,
2013-04-16 03:08:00,36.8,33.3,30.33,WNW,283,0.0,1.0,87,0.00,,,0.00,LWC V2.10 B1813,2013-04-16 07:08:00,
2013-04-16 03:13:00,36.5,33.3,30.32,North,353,1.0,1.0,88,0.00,,,0.00,LWC V2.10 B1813,2013-04-16 07:13:00,
2013-04-16 03:18:00,36.4,33.2,30.32,NE,39,0.0,0.0,88,0.00,,,0.00,LWC V2.10 B1813,2013-04-16 07:18:00,
2013-04-16 03:23:00,36.1,33.2,30.32,NW,306,0.0,0.0,89,0.00,,,0.00,LWC V2.10 B1813,2013-04-16 07:23:00,
2013-04-16 03:28:00,35.9,33.0,30.32,NW,306,0.0,0.0,89,0.00,,,0.00,LWC V2.10 B1813,2013-04-16 07:28:00,
2013-04-16 03:33:00,35.8,33.2,30.33,NW,305,0.0,0.0,90,0.00,,,0.00,LWC V2.10 B1813,2013-04-16 07:33:00,
2013-04-16 03:38:00,35.7,33.1,30.33,NW,305,0.0,0.0,90,0.00,,,0.00,LWC V2.10 B1813,2013-04-16 07:38:00,
2013-04-16 03:43:00,35.6,33.0,30.33,NW,304,0.0,0.0,90,0.00,,,0.00,LWC V2.10 B1813,2013-04-16 07:43:00,
2013-04-16 03:48:00,35.5,32.9,30.33,WNW,302,0.0,0.0,90,0.00,,,0.00,LWC V2.10 B1813,2013-04-16 07:48:00,
2013-04-16 03:53:00,35.4,33.0,30.33,WNW,303,0.0,0.0,91,0.00,,,0.00,LWC V2.10 B1813,2013-04-16 07:53:00,
2013-04-16 03:58:00,35.2,32.8,30.32,WNW,296,0.0,0.0,91,0.00,,,0.00,LWC V2.10 B1813,2013-04-16 07:58:00,
2013-04-16 04:03:00,35.2,32.8,30.32,WNW,283,0.0,0.0,91,0.00,,,0.00,LWC V2.10 B1813,2013-04-16 08:03:00,
2013-04-16 04:08:00,35.3,32.7,30.33,WNW,294,1.0,2.0,90,0.00,,,0.00,LWC V2.10 B1813,2013-04-16 08:08:00,
2013-04-16 04:13:00,35.2,32.6,30.33,WNW,294,0.0,1.0,90,0.00,,,0.00,LWC V2.10 B1813,2013-04-16 08:13:00,
2013-04-16 04:18:00,35.0,32.4,30.33,WNW,293,0.0,0.0,90,0.00,,,0.00,LWC V2.10 B1813,2013-04-16 08:18:00,
2013-04-16 04:23:00,34.9,32.5,30.33,WNW,289,1.0,1.0,91,0.00,,,0.00,LWC V2.10 B1813,2013-04-16 08:23:00,
2013-04-16 04:28:00,34.7,32.3,30.33,WNW,301,0.0,1.0,91,0.00,,,0.00,LWC V2.10 B1813,2013-04-16 08:28:00,
2013-04-16 04:33:00,34.7,32.3,30.33,WNW,291,0.0,1.0,91,0.00,,,0.00,LWC V2.10 B1813,2013-04-16 08:33:00,
2013-04-16 04:38:00,34.6,32.2,30.33,WNW,293,0.0,1.0,91,0.00,,,0.00,LWC V2.10 B1813,2013-04-16 08:38:00,
2013-04-16 04:43:00,34.6,32.2,30.33,WNW,291,0.0,0.0,91,0.00,,,0.00,LWC V2.10 B1813,2013-04-16 08:43:00,
2013-04-16 04:48:00,34.5,32.1,30.33,WNW,290,0.0,1.0,91,0.00,,,0.00,LWC V2.10 B1813,2013-04-16 08:48:00,
2013-04-16 04:53:00,34.5,31.9,30.33,WNW,291,0.0,0.0,90,0.00,,,0.00,LWC V2.10 B1813,2013-04-16 08:53:00,
2013-04-16 04:58:00,34.4,31.8,30.33,WNW,291,0.0,0.0,90,0.00,,,0.00,LWC V2.10 B1813,2013-04-16 08:58:00,
2013-04-16 05:03:00,34.4,31.8,30.32,WNW,291,1.0,1.0,90,0.00,,,0.00,LWC V2.10 B1813,2013-04-16 09:03:00,
2013-04-16 05:08:00,34.3,32.0,30.32,WNW,291,0.0,1.0,91,0.00,,,0.00,LWC V2.10 B1813,2013-04-16 09:08:00,
2013-04-16 05:13:00,34.1,31.8,30.32,WNW,286,1.0,1.0,91,0.00,,,0.00,LWC V2.10 B1813,2013-04-16 09:13:00,
2013-04-16 05:18:00,33.9,31.6,30.32,WNW,286,0.0,0.0,91,0.00,,,0.00,LWC V2.10 B1813,2013-04-16 09:18:00,
2013-04-16 05:23:00,33.8,31.5,30.32,WNW,286,0.0,0.0,91,0.00,,,0.00,LWC V2.10 B1813,2013-04-16 09:23:00,
2013-04-16 05:28:00,33.8,31.5,30.32,WNW,286,0.0,0.0,91,0.00,,,0.00,LWC V2.10 B1813,2013-04-16 09:28:00,
2013-04-16 05:33:00,33.7,31.6,30.32,WNW,286,0.0,0.0,92,0.00,,,0.00,LWC V2.10 B1813,2013-04-16 09:33:00,
2013-04-16 05:38:00,33.7,31.6,30.32,WNW,286,0.0,0.0,92,0.00,,,0.00,LWC V2.10 B1813,2013-04-16 09:38:00,
2013-04-16 05:43:00,33.7,31.6,30.32,WNW,286,1.0,1.0,92,0.00,,,0.00,LWC V2.10 B1813,2013-04-16 09:43:00,
2013-04-16 05:48:00,33.7,31.6,30.32,WNW,290,1.0,1.0,92,0.00,,,0.00,LWC V2.10 B1813,2013-04-16 09:48:00,
2013-04-16 05:53:00,33.8,31.7,30.32,WNW,291,1.0,1.0,92,0.00,,,0.00,LWC V2.10 B1813,2013-04-16 09:53:00,
2013-04-16 05:58:00,33.8,31.7,30.32,WNW,284,1.0,2.0,92,0.00,,,0.00,LWC V2.10 B1813,2013-04-16 09:58:00,
2013-04-16 06:03:00,33.8,31.7,30.32,WNW,286,0.0,1.0,92,0.00,,,0.00,LWC V2.10 B1813,2013-04-16 10:03:00,
2013-04-16 06:08:00,33.9,31.6,30.32,WNW,283,0.0,1.0,91,0.00,,,0.00,LWC V2.10 B1813,2013-04-16 10:08:00,
2013-04-16 06:13:00,33.9,31.6,30.32,WNW,283,1.0,1.0,91,0.00,,,0.00,LWC V2.10 B1813,2013-04-16 10:13:00,
2013-04-16 06:18:00,33.9,31.8,30.33,WNW,290,0.0,0.0,92,0.00,,,0.00,LWC V2.10 B1813,2013-04-16 10:18:00,
2013-04-16 06:23:00,34.0,31.7,30.33,WNW,290,0.0,0.0,91,0.00,,,0.00,LWC V2.10 B1813,2013-04-16 10:23:00,
2013-04-16 06:28:00,34.1,31.8,30.32,WNW,290,0.0,0.0,91,0.00,,,0.00,LWC V2.10 B1813,2013-04-16 10:28:00,
2013-04-16 06:33:00,34.3,32.2,30.32,WNW,290,0.0,0.0,92,0.00,,,0.00,LWC V2.10 B1813,2013-04-16 10:33:00,
2013-04-16 06:38:00,34.7,32.6,30.32,WNW,290,0.0,0.0,92,0.00,,,0.00,LWC V2.10 B1813,2013-04-16 10:38:00,
2013-04-16 06:43:00,35.2,32.8,30.32,WNW,290,0.0,0.0,91,0.00,,,0.00,LWC V2.10 B1813,2013-04-16 10:43:00,
2013-04-16 06:48:00,35.6,33.2,30.33,WNW,290,0.0,0.0,91,0.00,,,0.00,LWC V2.10 B1813,2013-04-16 10:48:00,
2013-04-16 06:53:00,35.9,33.8,30.33,WNW,290,0.0,0.0,92,0.00,,,0.00,LWC V2.10 B1813,2013-04-16 10:53:00,
2013-04-16 06:58:00,36.5,34.4,30.33,WNW,290,0.0,0.0,92,0.00,,,0.00,LWC V2.10 B1813,2013-04-16 10:58:00,
2013-04-16 07:03:00,37.2,34.3,30.32,WNW,289,0.0,0.0,89,0.00,,,0.00,LWC V2.10 B1813,2013-04-16 11:03:00,
2013-04-16 07:08:00,38.5,34.4,30.32,ESE,118,0.0,0.0,85,0.00,,,0.00,LWC V2.10 B1813,2013-04-16 11:08:00,
2013-04-16 07:13:00,39.8,35.4,30.33,ESE,117,0.0,0.0,84,0.00,,,0.00,LWC V2.10 B1813,2013-04-16 11:13:00,
2013-04-16 07:18:00,40.5,35.1,30.32,ESE,117,0.0,0.0,81,0.00,,,0.00,LWC V2.10 B1813,2013-04-16 11:18:00,
2013-04-16 07:23:00,40.8,35.1,30.32,SSE,157,0.0,0.0,80,0.00,,,0.00,LWC V2.10 B1813,2013-04-16 11:23:00,
2013-04-16 07:28:00,41.0,34.7,30.32,South,182,0.0,0.0,78,0.00,,,0.00,LWC V2.10 B1813,2013-04-16 11:28:00,
2013-04-16 07:33:00,41.2,35.5,30.32,South,182,0.0,0.0,80,0.00,,,0.00,LWC V2.10 B1813,2013-04-16 11:33:00,
2013-04-16 07:38:00,41.5,35.2,30.32,East,79,0.0,0.0,78,0.00,,,0.00,LWC V2.10 B1813,2013-04-16 11:38:00,
2013-04-16 07:43:00,41.7,35.0,30.32,SE,138,0.0,0.0,77,0.00,,,0.00,LWC V2.10 B1813,2013-04-16 11:43:00,
2013-04-16 07:48:00,41.9,34.9,30.32,SE,133,1.0,2.0,76,0.00,,,0.00,LWC V2.10 B1813,2013-04-16 11:48:00,
2013-04-16 07:53:00,42.0,34.3,30.32,ESE,119,1.0,3.0,74,0.00,,,0.00,LWC V2.10 B1813,2013-04-16 11:53:00,
2013-04-16 07:58:00,42.3,35.3,30.32,SW,230,0.0,1.0,76,0.00,,,0.00,LWC V2.10 B1813,2013-04-16 11:58:00,
2013-04-16 08:03:00,42.6,35.2,30.32,ESE,102,0.0,1.0,75,0.00,,,0.00,LWC V2.10 B1813,2013-04-16 12:03:00,
2013-04-16 08:08:00,42.9,35.2,30.31,SSE,156,0.0,0.0,74,0.00,,,0.00,LWC V2.10 B1813,2013-04-16 12:08:00,
2013-04-16 08:13:00,43.2,35.5,30.31,SE,144,0.0,0.0,74,0.00,,,0.00,LWC V2.10 B1813,2013-04-16 12:13:00,
2013-04-16 08:18:00,43.5,35.8,30.31,ESE,107,1.0,1.0,74,0.00,,,0.00,LWC V2.10 B1813,2013-04-16 12:18:00,
2013-04-16 08:23:00,43.6,35.5,30.31,ESE,103,0.0,1.0,73,0.00,,,0.00,LWC V2.10 B1813,2013-04-16 12:23:00,
2013-04-16 08:28:00,44.0,35.6,30.31,South,173,1.0,2.0,72,0.00,,,0.00,LWC V2.10 B1813,2013-04-16 12:28:00,
2013-04-16 08:33:00,44.3,36.2,30.31,ESE,117,0.0,0.0,73,0.00,,,0.00,LWC V2.10 B1813,2013-04-16 12:33:00,
2013-04-16 08:38:00,45.0,36.5,30.30,ESE,111,0.0,0.0,72,0.00,,,0.00,LWC V2.10 B1813,2013-04-16 12:38:00,
2013-04-16 08:43:00,45.8,36.9,30.30,SSW,206,3.0,5.0,71,0.00,,,0.00,LWC V2.10 B1813,2013-04-16 12:43:00,
2013-04-16 08:48:00,45.9,37.0,30.29,NNW,327,2.0,2.0,71,0.00,,,0.00,LWC V2.10 B1813,2013-04-16 12:48:00,
2013-04-16 08:53:00,46.2,37.7,30.29,ENE,67,2.0,3.0,72,0.00,,,0.00,LWC V2.10 B1813,2013-04-16 12:53:00,
2013-04-16 08:58:00,46.9,38.7,30.30,WNW,284,6.0,6.0,73,0.00,,,0.00,LWC V2.10 B1813,2013-04-16 12:58:00,
2013-04-16 09:03:00,47.5,39.6,30.29,SE,125,1.0,6.0,74,0.00,,,0.00,LWC V2.10 B1813,2013-04-16 13:03:00,
2013-04-16 09:08:00,47.8,39.9,30.29,WSW,248,2.0,5.0,74,0.00,,,0.00,LWC V2.10 B1813,2013-04-16 13:08:00,
2013-04-16 09:13:00,48.1,39.9,30.28,SW,228,3.0,7.0,73,0.00,,,0.00,LWC V2.10 B1813,2013-04-16 13:13:00,
2013-04-16 09:18:00,48.6,40.3,30.28,West,263,1.0,7.0,73,0.00,,,0.00,LWC V2.10 B1813,2013-04-16 13:18:00,
2013-04-16 09:23:00,49.1,40.8,30.28,NW,320,3.0,5.0,73,0.00,,,0.00,LWC V2.10 B1813,2013-04-16 13:23:00,
2013-04-16 09:28:00,49.4,40.8,30.28,WNW,291,1.0,13.0,72,0.00,,,0.00,LWC V2.10 B1813,2013-04-16 13:28:00,
2013-04-16 09:33:00,49.2,40.6,30.28,South,183,3.0,8.0,72,0.00,,,0.00,LWC V2.10 B1813,2013-04-16 13:33:00,
2013-04-16 09:38:00,49.2,40.9,30.28,SE,129,1.0,1.0,73,0.00,,,0.00,LWC V2.10 B1813,2013-04-16 13:38:00,
2013-04-16 09:43:00,49.7,41.4,30.28,South,169,7.0,9.0,73,0.00,,,0.00,LWC V2.10 B1813,2013-04-16 13:43:00,
2013-04-16 09:48:00,50.5,42.2,30.28,WNW,298,0.0,3.0,73,0.00,,,0.00,LWC V2.10 B1813,2013-04-16 13:48:00,
2013-04-16 09:53:00,51.3,41.9,30.27,ESE,120,3.0,11.0,70,0.00,,,0.00,LWC V2.10 B1813,2013-04-16 13:53:00,
2013-04-16 09:58:00,51.5,42.0,30.27,SSW,204,3.0,11.0,70,0.00,,,0.00,LWC V2.10 B1813,2013-04-16 13:58:00,
2013-04-16 10:03:00,52.1,42.2,30.27,SSE,154,5.0,12.0,69,0.00,,,0.00,LWC V2.10 B1813,2013-04-16 14:03:00,
2013-04-16 10:08:00,52.9,42.6,30.27,WNW,301,1.0,9.0,68,0.00,,,0.00,LWC V2.10 B1813,2013-04-16 14:08:00,
2013-04-16 10:13:00,53.6,42.5,30.27,West,275,7.0,13.0,66,0.00,,,0.00,LWC V2.10 B1813,2013-04-16 14:13:00,
2013-04-16 10:18:00,54.0,42.9,30.27,NNW,332,4.0,4.0,66,0.00,,,0.00,LWC V2.10 B1813,2013-04-16 14:18:00,
2013-04-16 10:23:00,54.6,42.7,30.27,SE,128,10.0,16.0,64,0.00,,,0.00,LWC V2.10 B1813,2013-04-16 14:23:00,
2013-04-16 10:28:00,54.6,43.1,30.26,SSE,149,5.0,9.0,65,0.00,,,0.00,LWC V2.10 B1813,2013-04-16 14:28:00,
2013-04-16 10:33:00,55.0,43.0,30.26,NW,325,3.0,9.0,64,0.00,,,0.00,LWC V2.10 B1813,2013-04-16 14:33:00,
2013-04-16 10:38:00,55.2,42.8,30.25,NW,306,1.0,8.0,63,0.00,,,0.00,LWC V2.10 B1813,2013-04-16 14:38:00,
2013-04-16 10:43:00,55.1,42.3,30.25,WSW,248,16.0,16.0,62,0.00,,,0.00,LWC V2.10 B1813,2013-04-16 14:43:00,
2013-04-16 10:48:00,55.0,42.2,30.25,SE,142,10.0,11.0,62,0.00,,,0.00,LWC V2.10 B1813,2013-04-16 14:48:00,
2013-04-16 10:53:00,55.0,42.2,30.25,ESE,114,6.0,11.0,62,0.00,,,0.00,LWC V2.10 B1813,2013-04-16 14:53:00,
2013-04-16 10:58:00,55.0,42.2,30.25,WSW,241,2.0,15.0,62,0.00,,,0.00,LWC V2.10 B1813,2013-04-16 14:58:00,
2013-04-16 11:03:00,55.5,42.7,30.24,South,180,1.0,4.0,62,0.00,,,0.00,LWC V2.10 B1813,2013-04-16 15:03:00,
2013-04-16 11:08:00,55.7,42.9,30.24,SSE,151,1.0,11.0,62,0.00,,,0.00,LWC V2.10 B1813,2013-04-16 15:08:00,
2013-04-16 11:13:00,55.7,42.5,30.23,ESE,118,6.0,11.0,61,0.00,,,0.00,LWC V2.10 B1813,2013-04-16 15:13:00,
2013-04-16 11:18:00,56.0,42.7,30.22,ESE,104,4.0,11.0,61,0.00,,,0.00,LWC V2.10 B1813,2013-04-16 15:18:00,
2013-04-16 11:23:00,56.7,43.4,30.20,West,272,1.0,4.0,61,0.00,,,0.00,LWC V2.10 B1813,2013-04-16 15:23:00,
2013-04-16 11:28:00,57.8,44.0,30.20,WSW,237,2.0,10.0,60,0.00,,,0.00,LWC V2.10 B1813,2013-04-16 15:28:00,
2013-04-16 11:33:00,58.4,44.1,30.21,NE,35,6.0,15.0,59,0.00,,,0.00,LWC V2.10 B1813,2013-04-16 15:33:00,
2013-04-16 11:38:00,58.2,43.5,30.20,NE,53,6.0,7.0,58,0.00,,,0.00,LWC V2.10 B1813,2013-04-16 15:38:00,
2013-04-16 11:43:00,58.9,43.7,30.21,NW,325,2.0,10.0,57,0.00,,,0.00,LWC V2.10 B1813,2013-04-16 15:43:00,
2013-04-16 11:48:00,59.1,44.3,30.20,SSW,194,3.0,4.0,58,0.00,,,0.00,LWC V2.10 B1813,2013-04-16 15:48:00,
2013-04-16 11:53:00,59.7,44.0,30.19,ENE,67,2.0,9.0,56,0.00,,,0.00,LWC V2.10 B1813,2013-04-16 15:53:00,
2013-04-16 11:58:00,60.1,44.3,30.18,NW,311,2.0,8.0,56,0.00,,,0.00,LWC V2.10 B1813,2013-04-16 15:58:00,
2013-04-16 12:03:00,60.6,45.3,30.18,ESE,114,7.0,8.0,57,0.00,,,0.00,LWC V2.10 B1813,2013-04-16 16:03:00,
2013-04-16 12:08:00,60.8,45.0,30.18,West,263,8.0,8.0,56,0.00,,,0.00,LWC V2.10 B1813,2013-04-16 16:08:00,
2013-04-16 12:13:00,61.1,45.3,30.18,NW,305,4.0,11.0,56,0.00,,,0.00,LWC V2.10 B1813,2013-04-16 16:13:00,
2013-04-16 12:18:00,61.6,45.3,30.17,East,93,5.0,13.0,55,0.00,,,0.00,LWC V2.10 B1813,2013-04-16 16:18:00,
2013-04-16 12:23:00,61.4,45.1,30.18,SSE,151,6.0,17.0,55,0.00,,,0.00,LWC V2.10 B1813,2013-04-16 16:23:00,
2013-04-16 12:28:00,61.1,44.8,30.18,ENE,78,5.0,8.0,55,0.00,,,0.00,LWC V2.10 B1813,2013-04-16 16:28:00,
2013-04-16 12:33:00,61.6,45.3,30.18,East,94,6.0,14.0,55,0.00,,,0.00,LWC V2.10 B1813,2013-04-16 16:33:00,
2013-04-16 12:38:00,61.5,45.2,30.17,ENE,72,8.0,18.0,55,0.00,,,0.00,LWC V2.10 B1813,2013-04-16 16:38:00,
2013-04-16 12:43:00,61.4,45.6,30.17,ESE,116,7.0,9.0,56,0.00,,,0.00,LWC V2.10 B1813,2013-04-16 16:43:00,
2013-04-16 12:48:00,61.9,45.6,30.16,NW,313,7.0,9.0,55,0.00,,,0.00,LWC V2.10 B1813,2013-04-16 16:48:00,
2013-04-16 12:53:00,62.3,45.9,30.16,NNE,28,8.0,8.0,55,0.00,,,0.00,LWC V2.10 B1813,2013-04-16 16:53:00,
2013-04-16 12:58:00,62.5,45.6,30.15,SSE,154,11.0,17.0,54,0.00,,,0.00,LWC V2.10 B1813,2013-04-16 16:58:00,
2013-04-16 13:03:00,62.1,45.3,30.15,WNW,283,8.0,28.0,54,0.00,,,0.00,LWC V2.10 B1813,2013-04-16 17:03:00,
2013-04-16 13:08:00,62.3,45.9,30.14,West,281,13.0,18.0,55,0.00,,,0.00,LWC V2.10 B1813,2013-04-16 17:08:00,
2013-04-16 13:13:00,62.4,46.0,30.14,NNE,25,4.0,8.0,55,0.00,,,0.00,LWC V2.10 B1813,2013-04-16 17:13:00,
2013-04-16 13:18:00,63.0,46.1,30.13,North,359,8.0,13.0,54,0.00,,,0.00,LWC V2.10 B1813,2013-04-16 17:18:00,
2013-04-16 13:23:00,62.8,45.9,30.13,WSW,249,9.0,22.0,54,0.00,,,0.00,LWC V2.10 B1813,2013-04-16 17:23:00,
2013-04-16 13:28:00,62.8,46.4,30.13,NW,307,6.0,9.0,55,0.00,,,0.00,LWC V2.10 B1813,2013-04-16 17:28:00,
2013-04-16 13:33:00,62.9,46.5,30.13,SSW,192,2.0,7.0,55,0.00,,,0.00,LWC V2.10 B1813,2013-04-16 17:33:00,
2013-04-16 13:38:00,62.4,46.0,30.13,SE,141,4.0,7.0,55,0.00,,,0.00,LWC V2.10 B1813,2013-04-16 17:38:00,
2013-04-16 13:43:00,61.7,45.8,30.12,WNW,290,4.0,11.0,56,0.00,,,0.00,LWC V2.10 B1813,2013-04-16 17:43:00,
2013-04-16 13:48:00,61.4,46.0,30.13,WSW,248,5.0,6.0,57,0.00,,,0.00,LWC V2.10 B1813,2013-04-16 17:48:00,
2013-04-16 13:53:00,61.2,46.3,30.12,SE,135,4.0,6.0,58,0.00,,,0.00,LWC V2.10 B1813,2013-04-16 17:53:00,
2013-04-16 13:58:00,61.0,45.7,30.12,East,92,3.0,9.0,57,0.00,,,0.00,LWC V2.10 B1813,2013-04-16 17:58:00,
2013-04-16 14:03:00,61.1,46.2,30.12,ENE,59,3.0,12.0,58,0.00,,,0.00,LWC V2.10 B1813,2013-04-16 18:03:00,
2013-04-16 14:08:00,61.3,46.4,30.11,ENE,65,6.0,14.0,58,0.00,,,0.00,LWC V2.10 B1813,2013-04-16 18:08:00,
2013-04-16 14:13:00,61.5,46.1,30.12,SSW,207,2.0,8.0,57,0.00,,,0.00,LWC V2.10 B1813,2013-04-16 18:13:00,
2013-04-16 14:18:00,61.6,46.2,30.11,NNW,337,3.0,17.0,57,0.00,,,0.00,LWC V2.10 B1813,2013-04-16 18:18:00,
2013-04-16 14:23:00,61.8,46.4,30.11,SE,129,6.0,11.0,57,0.00,,,0.00,LWC V2.10 B1813,2013-04-16 18:23:00,
2013-04-16 14:28:00,61.9,46.5,30.12,West,277,7.0,8.0,57,0.00,,,0.00,LWC V2.10 B1813,2013-04-16 18:28:00,
2013-04-16 14:33:00,61.9,46.5,30.11,SW,235,3.0,11.0,57,0.00,,,0.00,LWC V2.10 B1813,2013-04-16 18:33:00,
2013-04-16 14:38:00,61.8,46.9,30.11,NE,47,3.0,11.0,58,0.00,,,0.00,LWC V2.10 B1813,2013-04-16 18:38:00,
2013-04-16 14:43:00,61.4,46.9,30.12,NE,41,2.0,4.0,59,0.00,,,0.00,LWC V2.10 B1813,2013-04-16 18:43:00,
2013-04-16 14:48:00,60.9,47.4,30.12,NW,304,4.0,8.0,61,0.00,,,0.00,LWC V2.10 B1813,2013-04-16 18:48:00,
2013-04-16 14:53:00,60.7,47.2,30.13,NNW,347,7.0,7.0,61,0.00,,,0.00,LWC V2.10 B1813,2013-04-16 18:53:00,
2013-04-16 14:58:00,60.3,47.6,30.12,ENE,59,2.0,3.0,63,0.00,,,0.00,LWC V2.10 B1813,2013-04-16 18:58:00,
2013-04-16 15:03:00,59.8,48.0,30.11,East,97,1.0,4.0,65,0.00,,,0.00,LWC V2.10 B1813,2013-04-16 19:03:00,
2013-04-16 15:08:00,59.2,48.6,30.12,NW,308,1.0,2.0,68,0.00,,,0.00,LWC V2.10 B1813,2013-04-16 19:08:00,
2013-04-16 15:13:00,58.4,50.5,30.12,NNE,33,1.0,3.0,75,0.00,,,0.00,LWC V2.10 B1813,2013-04-16 19:13:00,
2013-04-16 15:18:00,57.2,50.4,30.12,NW,325,0.0,1.0,78,0.00,,,0.01,LWC V2.10 B1813,2013-04-16 19:18:00,
2013-04-16 15:23:00,56.4,51.3,30.12,NE,56,3.0,3.0,83,0.00,,,0.01,LWC V2.10 B1813,2013-04-16 19:23:00,
2013-04-16 15:28:00,55.9,50.5,30.11,SSE,154,0.0,0.0,82,0.00,,,0.01,LWC V2.10 B1813,2013-04-16 19:28:00,
2013-04-16 15:33:00,55.7,50.3,30.11,NW,315,1.0,1.0,82,0.00,,,0.01,LWC V2.10 B1813,2013-04-16 19:33:00,
2013-04-16 15:38:00,55.6,51.2,30.10,NNE,26,0.0,2.0,85,0.00,,,0.01,LWC V2.10 B1813,2013-04-16 19:38:00,
2013-04-16 15:43:00,55.5,51.4,30.10,NW,322,0.0,0.0,86,0.00,,,0.01,LWC V2.10 B1813,2013-04-16 19:43:00,
2013-04-16 15:48:00,55.4,51.6,30.10,West,281,0.0,0.0,87,0.00,,,0.01,LWC V2.10 B1813,2013-04-16 19:48:00,
2013-04-16 15:53:00,55.3,50.9,30.09,WNW,284,1.0,3.0,85,0.00,,,0.01,LWC V2.10 B1813,2013-04-16 19:53:00,
2013-04-16 15:58:00,55.3,51.5,30.09,NNE,32,0.0,1.0,87,0.00,,,0.01,LWC V2.10 B1813,2013-04-16 19:58:00,
2013-04-16 16:03:00,55.4,51.6,30.09,SE,138,1.0,1.0,87,0.00,,,0.01,LWC V2.10 B1813,2013-04-16 20:03:00,
2013-04-16 16:08:00,55.5,51.1,30.09,North,4,0.0,1.0,85,0.00,,,0.01,LWC V2.10 B1813,2013-04-16 20:08:00,
2013-04-16 16:13:00,55.6,51.8,30.08,East,83,1.0,1.0,87,0.00,,,0.02,LWC V2.10 B1813,2013-04-16 20:13:00,
2013-04-16 16:18:00,55.5,51.4,30.08,WSW,241,1.0,2.0,86,0.00,,,0.02,LWC V2.10 B1813,2013-04-16 20:18:00,
2013-04-16 16:23:00,55.6,51.5,30.07,ENE,67,3.0,3.0,86,0.00,,,0.02,LWC V2.10 B1813,2013-04-16 20:23:00,
2013-04-16 16:28:00,55.7,51.9,30.07,SE,129,2.0,3.0,87,0.00,,,0.02,LWC V2.10 B1813,2013-04-16 20:28:00,
2013-04-16 16:33:00,55.8,51.7,30.07,NNE,33,2.0,2.0,86,0.00,,,0.02,LWC V2.10 B1813,2013-04-16 20:33:00,
2013-04-16 16:38:00,56.0,51.9,30.07,South,188,6.0,9.0,86,0.00,,,0.02,LWC V2.10 B1813,2013-04-16 20:38:00,
2013-04-16 16:43:00,56.3,52.2,30.06,ESE,106,2.0,4.0,86,0.00,,,0.02,LWC V2.10 B1813,2013-04-16 20:43:00,
2013-04-16 16:48:00,56.5,52.0,30.07,SW,235,4.0,5.0,85,0.00,,,0.03,LWC V2.10 B1813,2013-04-16 20:48:00,
2013-04-16 16:53:00,56.8,52.0,30.06,North,1,1.0,9.0,84,0.00,,,0.03,LWC V2.10 B1813,2013-04-16 20:53:00,
2013-04-16 16:58:00,57.0,51.9,30.06,WSW,246,3.0,6.0,83,0.00,,,0.03,LWC V2.10 B1813,2013-04-16 20:58:00,
2013-04-16 17:03:00,57.2,52.1,30.07,WNW,300,4.0,11.0,83,0.00,,,0.03,LWC V2.10 B1813,2013-04-16 21:03:00,
2013-04-16 17:08:00,57.1,51.7,30.06,East,90,1.0,9.0,82,0.00,,,0.03,LWC V2.10 B1813,2013-04-16 21:08:00,
2013-04-16 17:13:00,57.1,51.7,30.06,West,260,6.0,7.0,82,0.00,,,0.03,LWC V2.10 B1813,2013-04-16 21:13:00,
2013-04-16 17:18:00,57.1,51.7,30.05,SW,231,6.0,11.0,82,0.00,,,0.03,LWC V2.10 B1813,2013-04-16 21:18:00,
2013-04-16 17:23:00,57.2,51.8,30.06,NNW,327,6.0,6.0,82,0.00,,,0.03,LWC V2.10 B1813,2013-04-16 21:23:00,
2013-04-16 17:28:00,57.2,51.4,30.06,SE,143,4.0,12.0,81,0.00,,,0.03,LWC V2.10 B1813,2013-04-16 21:28:00,
2013-04-16 17:33:00,57.3,51.2,30.06,NE,54,2.0,10.0,80,0.00,,,0.03,LWC V2.10 B1813,2013-04-16 21:33:00,
2013-04-16 17:38:00,57.2,51.1,30.04,WSW,251,7.0,14.0,80,0.00,,,0.03,LWC V2.10 B1813,2013-04-16 21:38:00,
2013-04-16 17:43:00,57.2,51.1,30.03,SE,136,8.0,12.0,80,0.00,,,0.03,LWC V2.10 B1813,2013-04-16 21:43:00,
2013-04-16 17:48:00,57.2,51.1,30.04,West,259,12.0,12.0,80,0.00,,,0.03,LWC V2.10 B1813,2013-04-16 21:48:00,
2013-04-16 17:53:00,57.2,51.1,30.04,WSW,244,5.0,8.0,80,0.00,,,0.03,LWC V2.10 B1813,2013-04-16 21:53:00,
2013-04-16 17:58:00,57.2,51.1,30.04,South,189,5.0,7.0,80,0.00,,,0.03,LWC V2.10 B1813,2013-04-16 21:58:00,
2013-04-16 18:03:00,57.3,51.2,30.04,WSW,258,2.0,10.0,80,0.00,,,0.03,LWC V2.10 B1813,2013-04-16 22:03:00,
2013-04-16 18:08:00,57.4,51.3,30.04,ENE,66,4.0,10.0,80,0.00,,,0.03,LWC V2.10 B1813,2013-04-16 22:08:00,
2013-04-16 18:13:00,57.4,50.9,30.04,NNW,341,2.0,13.0,79,0.00,,,0.03,LWC V2.10 B1813,2013-04-16 22:13:00,
2013-04-16 18:18:00,57.4,50.9,30.04,SSE,147,2.0,6.0,79,0.00,,,0.03,LWC V2.10 B1813,2013-04-16 22:18:00,
2013-04-16 18:23:00,57.4,50.9,30.04,ENE,66,4.0,6.0,79,0.00,,,0.03,LWC V2.10 B1813,2013-04-16 22:23:00,
2013-04-16 18:28:00,57.4,50.9,30.04,NE,53,5.0,5.0,79,0.00,,,0.03,LWC V2.10 B1813,2013-04-16 22:28:00,
2013-04-16 18:33:00,57.3,50.8,30.04,WSW,241,1.0,3.0,79,0.00,,,0.03,LWC V2.10 B1813,2013-04-16 22:33:00,
2013-04-16 18:38:00,57.3,50.8,30.04,ENE,69,0.0,12.0,79,0.00,,,0.03,LWC V2.10 B1813,2013-04-16 22:38:00,
2013-04-16 18:43:00,57.2,50.7,30.04,NE,41,2.0,4.0,79,0.00,,,0.03,LWC V2.10 B1813,2013-04-16 22:43:00,
2013-04-16 18:48:00,57.1,50.6,30.04,West,267,7.0,7.0,79,0.00,,,0.03,LWC V2.10 B1813,2013-04-16 22:48:00,
2013-04-16 18:53:00,57.0,50.5,30.04,ENE,65,3.0,13.0,79,0.00,,,0.03,LWC V2.10 B1813,2013-04-16 22:53:00,
2013-04-16 18:58:00,56.9,50.8,30.04,ESE,115,1.0,3.0,80,0.00,,,0.03,LWC V2.10 B1813,2013-04-16 22:58:00,
2013-04-16 19:03:00,56.8,50.7,30.03,NW,311,3.0,7.0,80,0.00,,,0.03,LWC V2.10 B1813,2013-04-16 23:03:00,
2013-04-16 19:08:00,56.7,50.6,30.03,West,260,3.0,8.0,80,0.00,,,0.03,LWC V2.10 B1813,2013-04-16 23:08:00,
2013-04-16 19:13:00,56.6,50.5,30.03,ENE,58,2.0,3.0,80,0.00,,,0.03,LWC V2.10 B1813,2013-04-16 23:13:00,
2013-04-16 19:18:00,56.5,50.7,30.03,North,4,3.0,6.0,81,0.00,,,0.03,LWC V2.10 B1813,2013-04-16 23:18:00,
2013-04-16 19:23:00,56.4,50.6,30.02,NNE,17,1.0,10.0,81,0.00,,,0.03,LWC V2.10 B1813,2013-04-16 23:23:00,
2013-04-16 19:28:00,56.3,50.5,30.03,SE,145,1.0,12.0,81,0.00,,,0.03,LWC V2.10 B1813,2013-04-16 23:28:00,
2013-04-16 19:33:00,56.2,50.4,30.03,NW,317,6.0,9.0,81,0.00,,,0.03,LWC V2.10 B1813,2013-04-16 23:33:00,
2013-04-16 19:38:00,56.2,50.4,30.03,NNW,328,0.0,4.0,81,0.00,,,0.03,LWC V2.10 B1813,2013-04-16 23:38:00,
2013-04-16 19:43:00,56.1,50.7,30.03,South,170,4.0,10.0,82,0.00,,,0.03,LWC V2.10 B1813,2013-04-16 23:43:00,
2013-04-16 19:48:00,56.1,50.7,30.03,ENE,63,1.0,2.0,82,0.00,,,0.03,LWC V2.10 B1813,2013-04-16 23:48:00,
2013-04-16 19:53:00,56.0,50.6,30.03,SSE,167,4.0,11.0,82,0.00,,,0.03,LWC V2.10 B1813,2013-04-16 23:53:00,
2013-04-16 19:58:00,56.0,50.6,30.03,SW,230,0.0,9.0,82,0.00,,,0.03,LWC V2.10 B1813,2013-04-16 23:58:00,
2013-04-16 20:03:00,56.0,50.6,30.04,SSE,151,3.0,7.0,82,0.00,,,0.03,LWC V2.10 B1813,2013-04-17 00:03:00,
2013-04-16 20:08:00,55.9,50.8,30.03,East,95,3.0,6.0,83,0.00,,,0.03,LWC V2.10 B1813,2013-04-17 00:08:00,
2013-04-16 20:13:00,55.9,50.8,30.02,West,268,2.0,4.0,83,0.00,,,0.03,LWC V2.10 B1813,2013-04-17 00:13:00,
2013-04-16 20:18:00,55.7,50.6,30.01,WSW,237,5.0,5.0,83,0.00,,,0.03,LWC V2.10 B1813,2013-04-17 00:18:00,
2013-04-16 20:23:00,55.7,50.9,30.02,NE,45,4.0,7.0,84,0.00,,,0.03,LWC V2.10 B1813,2013-04-17 00:23:00,
2013-04-16 20:28:00,55.7,50.9,30.02,NW,313,3.0,9.0,84,0.00,,,0.03,LWC V2.10 B1813,2013-04-17 00:28:00,
2013-04-16 20:33:00,55.6,50.8,30.03,South,177,1.0,4.0,84,0.00,,,0.03,LWC V2.10 B1813,2013-04-17 00:33:00,
2013-04-16 20:38:00,55.6,50.8,30.03,West,265,4.0,6.0,84,0.00,,,0.03,LWC V2.10 B1813,2013-04-17 00:38:00,
2013-04-16 20:43:00,55.7,50.9,30.03,WSW,248,4.0,7.0,84,0.00,,,0.03,LWC V2.10 B1813,2013-04-17 00:43:00,
2013-04-16 20:48:00,55.7,50.9,30.03,WSW,244,3.0,9.0,84,0.00,,,0.03,LWC V2.10 B1813,2013-04-17 00:48:00,
2013-04-16 20:53:00,55.7,51.3,30.03,West,273,5.0,10.0,85,0.00,,,0.03,LWC V2.10 B1813,2013-04-17 00:53:00,
2013-04-16 20:58:00,55.7,51.3,30.02,SW,234,2.0,4.0,85,0.00,,,0.03,LWC V2.10 B1813,2013-04-17 00:58:00,
2013-04-16 21:03:00,55.7,51.3,30.02,ENE,67,2.0,5.0,85,0.00,,,0.03,LWC V2.10 B1813,2013-04-17 01:03:00,
2013-04-16 21:08:00,55.7,51.3,30.02,SW,214,1.0,6.0,85,0.00,,,0.03,LWC V2.10 B1813,2013-04-17 01:08:00,
2013-04-16 21:13:00,55.7,51.3,30.02,WNW,295,1.0,6.0,85,0.00,,,0.03,LWC V2.10 B1813,2013-04-17 01:13:00,
2013-04-16 21:18:00,55.7,51.3,30.02,WSW,249,1.0,3.0,85,0.00,,,0.03,LWC V2.10 B1813,2013-04-17 01:18:00,
2013-04-16 21:23:00,55.8,51.7,30.02,SSE,163,1.0,7.0,86,0.00,,,0.03,LWC V2.10 B1813,2013-04-17 01:23:00,
2013-04-16 21:28:00,55.7,51.6,30.02,South,176,7.0,7.0,86,0.00,,,0.03,LWC V2.10 B1813,2013-04-17 01:28:00,
2013-04-16 21:33:00,55.8,51.7,30.02,NW,315,2.0,6.0,86,0.00,,,0.03,LWC V2.10 B1813,2013-04-17 01:33:00,
2013-04-16 21:38:00,55.9,51.8,30.02,NW,305,3.0,6.0,86,0.00,,,0.03,LWC V2.10 B1813,2013-04-17 01:38:00,
2013-04-16 21:43:00,55.9,51.8,30.02,ENE,69,2.0,5.0,86,0.00,,,0.03,LWC V2.10 B1813,2013-04-17 01:43:00,
2013-04-16 21:48:00,55.9,51.8,30.02,SE,143,3.0,6.0,86,0.00,,,0.03,LWC V2.10 B1813,2013-04-17 01:48:00,
2013-04-16 21:53:00,56.0,51.9,30.02,West,276,6.0,8.0,86,0.00,,,0.03,LWC V2.10 B1813,2013-04-17 01:53:00,
2013-04-16 21:58:00,56.0,51.9,30.02,WNW,301,1.0,8.0,86,0.00,,,0.03,LWC V2.10 B1813,2013-04-17 01:58:00,
2013-04-16 22:03:00,56.0,51.9,30.01,South,186,2.0,8.0,86,0.00,,,0.03,LWC V2.10 B1813,2013-04-17 02:03:00,
2013-04-16 22:08:00,56.0,51.9,30.01,SW,227,4.0,6.0,86,0.00,,,0.03,LWC V2.10 B1813,2013-04-17 02:08:00,
2013-04-16 22:13:00,56.0,51.9,30.02,SW,227,2.0,5.0,86,0.00,,,0.03,LWC V2.10 B1813,2013-04-17 02:13:00,
2013-04-16 22:18:00,56.0,51.9,30.02,ESE,102,1.0,2.0,86,0.00,,,0.03,LWC V2.10 B1813,2013-04-17 02:18:00,
2013-04-16 22:23:00,55.8,52.0,30.01,NNE,13,1.0,1.0,87,0.00,,,0.03,LWC V2.10 B1813,2013-04-17 02:23:00,
2013-04-16 22:28:00,55.7,52.2,30.02,ESE,123,1.0,3.0,88,0.00,,,0.03,LWC V2.10 B1813,2013-04-17 02:28:00,
2013-04-16 22:33:00,55.5,52.3,30.02,NNE,21,1.0,4.0,89,0.00,,,0.03,LWC V2.10 B1813,2013-04-17 02:33:00,
2013-04-16 22:38:00,55.3,52.1,30.02,SSE,162,1.0,1.0,89,0.00,,,0.03,LWC V2.10 B1813,2013-04-17 02:38:00,
2013-04-16 22:43:00,55.2,52.3,30.02,SW,232,1.0,3.0,90,0.00,,,0.03,LWC V2.10 B1813,2013-04-17 02:43:00,
2013-04-16 22:48:00,55.1,52.2,30.02,ESE,116,1.0,1.0,90,0.00,,,0.03,LWC V2.10 B1813,2013-04-17 02:48:00,
2013-04-16 22:53:00,55.1,52.2,30.02,WSW,244,3.0,6.0,90,0.00,,,0.03,LWC V2.10 B1813,2013-04-17 02:53:00,
2013-04-16 22:58:00,55.1,52.5,30.02,West,268,2.0,4.0,91,0.00,,,0.03,LWC V2.10 B1813,2013-04-17 02:58:00,
2013-04-16 23:03:00,55.0,52.4,30.02,WSW,256,2.0,4.0,91,0.00,,,0.03,LWC V2.10 B1813,2013-04-17 03:03:00,
2013-04-16 23:08:00,54.9,52.3,30.02,ESE,111,2.0,5.0,91,0.00,,,0.03,LWC V2.10 B1813,2013-04-17 03:08:00,
2013-04-16 23:13:00,54.7,52.4,30.02,NE,43,1.0,2.0,92,0.00,,,0.03,LWC V2.10 B1813,2013-04-17 03:13:00,
2013-04-16 23:18:00,54.5,52.2,30.02,NW,318,1.0,3.0,92,0.00,,,0.03,LWC V2.10 B1813,2013-04-17 03:18:00,
2013-04-16 23:23:00,54.3,52.3,30.02,WSW,255,2.0,3.0,93,0.00,,,0.03,LWC V2.10 B1813,2013-04-17 03:23:00,
2013-04-16 23:28:00,54.3,52.3,30.03,NW,325,2.0,3.0,93,0.00,,,0.03,LWC V2.10 B1813,2013-04-17 03:28:00,
2013-04-16 23:33:00,54.4,52.4,30.03,North,355,1.0,1.0,93,0.00,,,0.03,LWC V2.10 B1813,2013-04-17 03:33:00,
2013-04-16 23:38:00,54.3,52.3,30.03,West,281,1.0,1.0,93,0.00,,,0.03,LWC V2.10 B1813,2013-04-17 03:38:00,
2013-04-16 23:43:00,54.3,52.3,30.03,NE,53,1.0,2.0,93,0.00,,,0.03,LWC V2.10 B1813,2013-04-17 03:43:00,
2013-04-16 23:48:00,54.2,52.2,30.03,WNW,283,3.0,4.0,93,0.00,,,0.03,LWC V2.10 B1813,2013-04-17 03:48:00,
2013-04-16 23:53:00,54.3,52.3,30.03,South,170,2.0,3.0,93,0.00,,,0.03,LWC V2.10 B1813,2013-04-17 03:53:00,
2013-04-16 23:58:00,54.3,52.3,30.03,NW,304,2.0,3.0,93,0.00,,,0.03,LWC V2.10 B1813,2013-04-17 03:58:00,